Regional Weather Roundup
Issued by NWS

Home | Current Version | Previous Version | Graphics & Text | Print | Product List | Glossary On
Versions: 1 2 3 4 5 6 7 8 9 10 11 12 13 14 15 16 17 18 19 20 21 22 23 24 25 26 27 28 29 30 31 32 33 34 35 36 37 38 39 40 41 42 43 44 45 46 47 48 49 50
000
ASUS43 KMPX 161710
RWRMN
WEATHER ROUNDUP FOR MINNESOTA
NATIONAL WEATHER SERVICE TWIN CITIES/CHANHASSEN MN
1200 PM CDT WED APR 16 2014


NOTE: "FAIR" INDICATES FEW OR NO CLOUDS BELOW 12,000 FEET WITH NO
SIGNIFICANT WEATHER AND/OR OBSTRUCTIONS TO VISIBILITY. N/A MEANS
CURRENT SKY AND/OR WEATHER CONDITIONS ARE NOT AVAILABLE.

MNZ060>063-068>070-161800-
   Twin Cities Metro

CITY           SKY/WX    TMP DP  RH WIND       PRES   REMARKS
TWIN CITIES    CLOUDY    34  28  79 E18       29.91F WCI  23
ST PAUL        CLOUDY    33  28  81 E10       29.95S WCI  25
CRYSTAL        LGT SNOW  31  28  89 E12       29.91F FOG     WCI  22
BLAINE         CLOUDY    32  30  93 MISG      29.93F VSB 3/4
EDEN PRAIRIE   CLOUDY    36  28  73 E15G21    29.88F
LAKEVILLE      CLOUDY    39  25  56 E17       29.88F
SOUTH ST PAUL  CLOUDY    37  29  72 E9G16     29.93F
LAKE ELMO      MIX PCPN  32  30  93 E13       29.96S WCI  22
$$
MNZ001>005-007-008-013>017-022>024-027-028-161800-
   Northwest Minnesota

CITY           SKY/WX    TMP DP  RH WIND       PRES   REMARKS
BEMIDJI        CLOUDY    33  16  50 E17       30.09S WCI  21
HALLOCK        CLOUDY    34   9  35 NE15      30.19R WCI  24
ROSEAU         SUNNY     32   9  37 NE17      30.20R WCI  21
WARROAD        SUNNY     28  16  59 NE13G18   30.22R WCI  18
THIEF RVR FALL SUNNY     36   5  27 E18G25    30.13R
CROOKSTON      SUNNY     37  10  32 E18G24    30.12S
FOSSTON        MOSUNNY   36  16  44 E16G26    30.08R
DETROIT LAKES  CLOUDY    30  23  74 E15G26    30.01S WCI  19
MOORHEAD       PTSUNNY   30  27  86 E20       30.04S WCI  18
PARK RAPIDS    LGT SNOW  27  22  81 E13G18    30.03S WCI  16
$$
MNZ006-009>011-018-025>026-161800-
   North Central Minnesota

CITY           SKY/WX    TMP DP  RH WIND       PRES   REMARKS
BAUDETTE       SUNNY     33   7  33 E13       30.18S WCI  24
FLAG ISLAND    SUNNY     28   1  31 NE7       30.22S WCI  21
INTL FALLS     SUNNY     31   6  35 NE13      30.19S WCI  21
WASKISH        MOSUNNY   37   9  30 NE13G21   30.14R
BIG FORK       PTSUNNY   34   7  32 E12G18    30.13S WCI  25
LONGVILLE      LGT SNOW  27  23  86 NE6G20    30.08S WCI  20
GRAND RAPIDS   CLOUDY    27  19  74 E10G18    30.11S WCI  17
CRANE LAKE     MOSUNNY   36  21  55 NE7       30.21S
ORR            PTSUNNY   34   0  23 E8        30.14S WCI  27
COOK           PTSUNNY   32  12  43 NE8       30.16R WCI  25
$$
MNZ012-019>021-037-161800-
   Northeast Minnesota

CITY           SKY/WX    TMP DP  RH WIND       PRES   REMARKS
DULUTH         SNOW      26  21  81 E16       30.12F VSB 1/2 WCI  14
ELY            PTSUNNY   30   9  40 SE10      30.17R WCI  21
HIBBING        FLURRIES  30  18  60 SE15      30.14R WCI  19
EVELETH        CLOUDY    30  14  51 E13G18    30.16R WCI  20
DULUTH HARBOR  LGT SNOW  28  27  93 NE17      30.18F VSB 3/4 WCI  16
TWO HARBORS    LGT SNOW  27  19  74 E10       30.17R WCI  17
SILVER BAY     CLOUDY    28  19  69 E13G18    30.19R WCI  18
GRAND MARAIS     N/A     30  18  60 E13       30.27S WCI  20
G MARAIS ARPRT PTSUNNY   27   3  36 E8        30.20S WCI  18
$$
MNZ029>031-032-039>041-046>048-054>057-064-161800-
   West Central Minnesota

CITY           SKY/WX    TMP DP  RH WIND       PRES   REMARKS
FERGUS FALLS   CLOUDY    28  21  74 E18G30    29.97R WCI  16
WHEATON        LGT SNOW  30  28  93 NE16G24   29.97R WCI  19
MORRIS         SNOW      28  27  93 NE21G28   29.90R VSB 1/2 WCI  15
ALEXANDRIA     SNOW      27  24  89 NE21G26   29.93R VSB 1/4 WCI  13
ELBOW LAKE     LGT SNOW  28  26  90 NE18G26   29.95R VSB 3/4 WCI  15
WADENA         LGT SNOW  27  23  86 NE17G23   29.99S WCI  14
GLENWOOD       SNOW      27  27 100 NE22G29   29.90S VSB 1/4 WCI  12
APPLETON       SNOW      30  28  93 NE16      29.87R VSB 1/2 WCI  19
BENSON         SNOW      28  27  93 E15G24    29.87R VSB 1/2 WCI  17
ORTONVILLE     SNOW      28  27  93 NE18G25   29.89R VSB 1/4 WCI  16
MADISON        LGT SNOW  34  32  93 NE15      29.85R VSB 1   WCI  24
WILLMAR        SNOW      30  28  93 E17G24    29.85S VSB 1/4 WCI  18
$$
MNZ033>034-036-042>043-049>051-058-059-161800-
   Central Minnesota

CITY           SKY/WX    TMP DP  RH WIND       PRES   REMARKS
ST CLOUD       HVY SNOW  29  26  89 E12G22    29.93S VSB 1/4 WCI  19
SAUK CENTRE    SNOW      27  25  93 NE20G26   29.92S VSB 1/4 WCI  14
PAYNESVILLE    SNOW      29  27  92 NE14      29.90R VSB 1/2 WCI  18
AITKIN         LGT SNOW  30  25  80 NE14G23   30.03F WCI  20
PINE RIVER     LGT SNOW  27  21  80 E16G26    30.07F WCI  14
BRAINERD       SNOW      31  24  75 NE15G22   30.02S VSB 1/2 WCI  20
STAPLES        LGT SNOW  27  23  86 E13G21    30.00R VSB 1   WCI  16
LONG PRAIRIE   CLOUDY    27  25  93 NE16G26   29.95R VSB 1/4 WCI  14
LITTLE FALLS   SNOW      28  27  93 NE10G18   29.98R VSB 1/4 WCI  19
LITCHFIELD     SNOW      30  30 100 E13       29.88S VSB 1/4 WCI  20
BUFFALO        SNOW      30  28  93 NE13G18   29.91F VSB 1/4 WCI  20
MAPLE LAKE     SNOW      31  30  96 E13       29.91F VSB 1/4 WCI  21
$$
MNZ037-044-045-052-053-161800-
   East Central Minnesota

CITY           SKY/WX    TMP DP  RH WIND       PRES   REMARKS
PRINCETON      HVY SNOW  30  27  86 NE12G18   29.96S VSB 1/4 WCI  21
MORA           SNOW      28  25  86 E13       30.02S VSB 1/2 WCI  18
CAMBRIDGE      SNOW      30  25  80 NE9       29.96S VSB 1/4 WCI  22
RUSH CITY      MIX PCPN  29  27  92 E10G17    30.01R VSB 1   WCI  20
MOOSE LAKE     SNOW      28  27  93 NE9G16    30.05F VSB 1/2 WCI  20
HINCKLEY       SNOW      30  28  93 NE13G21   30.03S VSB 1/2 WCI  20
CLOQUET        LGT SNOW  27  23  86 E17G24    30.09F VSB 3/4 WCI  14
MCGREGOR       CLOUDY    28  27  93 E15G21    30.07F WCI  17
$$
MNZ071>073-080-081-089-090-097-098-161800-
   Southwest Minnesota

CITY           SKY/WX    TMP DP  RH WIND       PRES   REMARKS
MONTEVIDEO     LGT SNOW  32  30  93 E20       29.83R VSB 3/4 WCI  20
GRANITE FALLS  SNOW      32  31  94 NE13      29.81S VSB 1/2 WCI  23
CANBY          SNOW      32  31  98 N8        29.83R VSB 1/2 WCI  25
MARSHALL       CLOUDY    34  28  80 NE14      29.78R WCI  24
REDWOOD FALLS  LGT SNOW  34  31  88 NE10      29.80R VSB 1   WCI  26
OLIVIA         SNOW      34  32  93 E13G21    29.80F VSB 1/2 WCI  25
PIPESTONE      LGT RAIN  39  37  93 NE10      29.69R
WINDOM         CLOUDY    48  28  46 S13G18    29.72S
WORTHINGTON    CLOUDY    48  27  43 S22G28    29.71R
JACKSON        CLOUDY    50  28  43 S22G32    29.72F
TRACY          RAIN      35  32  90 E16       29.71F WCI  25
$$
MNZ065>067-074>077-082>085-091>093-161800-
   South Central Minnesota

CITY           SKY/WX    TMP DP  RH WIND       PRES   REMARKS
MANKATO        CLOUDY    45  28  53 SE17G23   29.82F
NEW ULM        CLOUDY    43  30  61 SE10      29.78F
ST JAMES       CLOUDY    48  34  57 SE14      29.76F
FAIRMONT       CLOUDY    48  28  46 S24G30    29.77F
GLENCOE        CLOUDY    36  28  74 E12       29.85S
FARIBAULT      CLOUDY    46  25  42 SE14G22   29.87F
OWATONNA       CLOUDY    45  28  53 SE16G24   29.85F
WASECA         CLOUDY    43  30  61 SE15      29.85S
ALBERT LEA     CLOUDY    46  30  53 S12G18    29.83R
$$
MNZ078>079-086>088-094>096-161800-
   Southeast Minnesota

CITY           SKY/WX    TMP DP  RH WIND       PRES   REMARKS
ROCHESTER      CLOUDY    42  28  57 S22G36    29.86F
RED WING       CLOUDY    41  23  48 E14       29.92F
STANTON        CLOUDY    44  25  47 SE9       29.88F
DODGE CENTER   CLOUDY    45  30  57 S17       29.86S
WINONA         CLOUDY    50  27  40 SE12G17   29.94F
AUSTIN         CLOUDY    45  28  53 S14G28    29.84F
PRESTON        CLOUDY    46  29  52 SE24G30   29.90F
$$
ABBREVIATIONS USED IN REMARKS
   TC - TEMPERATURES IN CELSIUS
  WCI - WIND CHILL INDEX
   HX - HEAT INDEX
  VSB - VISIBILITY
$$


USA.gov is the U.S. government's official web portal to all federal, state and local government web resources and services.